Two Harbors, MN

2:22 PM CST on February 10, 2016 (GMT -0600)
Helgeson

Weather History for KTWM - March, 2013

Change the Weather History Date:

Thursday, March 7, 2013

  Actual Average Record
Temperature  
Mean Temperature 12 °F -  
Max Temperature 26 °F 33 °F 54 °F (1987)
Min Temperature -2 °F 12 °F -20 °F (1955)
Degree Days  
Heating Degree Days 53    
Moisture  
Dew Point 9 °F    
Average Humidity 72    
Maximum Humidity 86    
Minimum Humidity 55    
Precipitation  
Precipitation 0.00 in - - ()
Sea Level Pressure  
Sea Level Pressure 30.33 in    
Wind  
Wind Speed 5 mph (NE)    
Max Wind Speed 12 mph    
Max Gust Speed -    
Visibility 10 miles    
Events      
Averages and records for this station are not official NWS values.
T = Trace of Precipitation, MM = Missing Value Source: NWS Daily Summary

Daily Weather History Graph

Daily Weather History Graph

Search for Another Location

Airport or City:

Trip Planner

Search our weather history database for the weather conditions in past years. The results will help you decide how hot, cold, wet, or windy it might be!

Date:

Astronomy

Mar. 07, 2013 Rise Set
Actual Time 6:35 AM CST 6:01 PM CST
Civil Twilight 6:04 AM CST 6:32 PM CST
Nautical Twilight 5:29 AM CST 7:07 PM CST
Astronomical Twilight 4:53 AM CST 7:43 PM CST
Moon 3:49 AM CST (3/7) 1:36 PM CST (3/7)
Length of Visible Light 12h 27m
Length of Day
11h 26m
Waning Crescent, 20% of the Moon is Illuminated
Mar 7
Waning Crescent
Mar 11
New
Mar 19
First Quarter
Mar 27
Full
Apr 2
Last Quarter

Hourly Weather History & Observations

Time (CST) Temp. Windchill Dew Point Humidity Pressure Visibility Wind Dir Wind Speed Gust Speed Precip Events Conditions
12:12 AM 12.2 °F 4.3 °F 6.8 °F 79% 30.31 in 10.0 mi NNW 4.6 mph - N/A   Mostly Cloudy
12:31 AM 12.2 °F 2.9 °F 6.8 °F 79% 30.30 in 10.0 mi NNW 5.8 mph - N/A   Scattered Clouds
12:51 AM 12.2 °F 6.1 °F 6.8 °F 79% 30.31 in 10.0 mi NW 3.5 mph - N/A   Clear
1:12 AM 8.6 °F 2.0 °F 3.2 °F 79% 30.31 in 10.0 mi NNW 3.5 mph - N/A   Clear
1:31 AM 8.6 °F 2.0 °F 3.2 °F 79% 30.31 in 10.0 mi NW 3.5 mph - N/A   Clear
1:51 AM 6.8 °F - 1.4 °F 79% 30.31 in 10.0 mi Calm Calm - N/A   Clear
2:12 AM 3.2 °F - -0.4 °F 85% 30.31 in 10.0 mi Calm Calm - N/A   Clear
2:31 AM 3.2 °F -4.2 °F -0.4 °F 85% 30.32 in 10.0 mi NNW 3.5 mph - N/A   Clear
2:51 AM 3.2 °F -6.2 °F -2.2 °F 78% 30.31 in 10.0 mi NW 4.6 mph - N/A   Clear
3:12 AM 1.4 °F -8.3 °F -5.8 °F 72% 30.32 in 10.0 mi NW 4.6 mph - N/A   Clear
3:31 AM 6.8 °F -3.5 °F 1.4 °F 79% 30.33 in 10.0 mi NW 5.8 mph - N/A   Clear
3:51 AM 5.0 °F -4.1 °F -0.4 °F 78% 30.33 in 10.0 mi NW 4.6 mph - N/A   Clear
4:12 AM 3.2 °F -7.8 °F -2.2 °F 78% 30.34 in 10.0 mi WNW 5.8 mph - N/A   Clear
4:31 AM 5.0 °F -5.6 °F -0.4 °F 78% 30.34 in 10.0 mi NW 5.8 mph - N/A   Clear
4:51 AM 6.8 °F -3.5 °F 1.4 °F 79% 30.34 in 10.0 mi NNW 5.8 mph - N/A   Clear
5:12 AM 6.8 °F -2.0 °F 1.4 °F 79% 30.34 in 10.0 mi NNW 4.6 mph - N/A   Clear
5:31 AM -0.4 °F - -5.8 °F 78% 30.33 in 10.0 mi Calm Calm - N/A   Clear
5:51 AM 5.0 °F -4.1 °F -0.4 °F 78% 30.33 in 10.0 mi North 4.6 mph - N/A   Clear
6:11 AM 3.2 °F - -2.2 °F 78% 30.34 in 10.0 mi Calm Calm - N/A   Clear
6:31 AM 3.2 °F -6.2 °F -2.2 °F 78% 30.35 in 10.0 mi NW 4.6 mph - N/A   Clear
6:51 AM 1.4 °F - -5.8 °F 72% 30.35 in 10.0 mi Calm Calm - N/A   Clear
7:11 AM -2.2 °F -10.4 °F -9.4 °F 71% 30.35 in 10.0 mi North 3.5 mph - N/A   Clear
7:31 AM 6.8 °F -0.1 °F 1.4 °F 79% 30.35 in 10.0 mi North 3.5 mph - N/A   Clear
7:51 AM 10.4 °F 4.0 °F 6.8 °F 85% 30.35 in 10.0 mi North 3.5 mph - N/A   Clear
8:11 AM 15.8 °F 8.6 °F 8.6 °F 73% 30.35 in 10.0 mi NNE 4.6 mph - N/A   Clear
8:31 AM 17.6 °F 10.7 °F 8.6 °F 68% 30.35 in 10.0 mi NNE 4.6 mph - N/A   Clear
9:11 AM 21.2 °F 16.4 °F 8.6 °F 58% 30.36 in 10.0 mi ENE 3.5 mph - N/A   Clear
9:31 AM 21.2 °F 12.6 °F 8.6 °F 58% 30.36 in 10.0 mi ENE 6.9 mph - N/A   Clear
9:52 AM 21.2 °F 16.4 °F 10.4 °F 63% 30.37 in 10.0 mi East 3.5 mph - N/A   Clear
10:11 AM 23.0 °F 15.8 °F 10.4 °F 59% 30.37 in 10.0 mi East 5.8 mph - N/A   Clear
10:31 AM 23.0 °F 13.9 °F 12.2 °F 63% 30.36 in 10.0 mi East 8.1 mph - N/A   Clear
10:52 AM 24.8 °F 17.9 °F 12.2 °F 59% 30.37 in 10.0 mi SE 5.8 mph - N/A   Clear
11:11 AM 24.8 °F 17.9 °F 12.2 °F 59% 30.37 in 10.0 mi East 5.8 mph - N/A   Scattered Clouds
11:32 AM 23.0 °F 15.8 °F 12.2 °F 63% 30.37 in 10.0 mi ESE 5.8 mph - N/A   Scattered Clouds
11:51 AM 21.2 °F - 12.2 °F 68% 30.37 in 10.0 mi Calm Calm - N/A   Scattered Clouds
12:11 PM 24.8 °F 19.1 °F 14.0 °F 64% 30.37 in 10.0 mi East 4.6 mph - N/A   Mostly Cloudy
12:31 PM 24.8 °F 16.1 °F 12.2 °F 59% 30.36 in 10.0 mi NE 8.1 mph - N/A   Unknown
12:51 PM 24.8 °F 20.5 °F 12.2 °F 59% 30.36 in 10.0 mi NE 3.5 mph - N/A   Unknown
1:11 PM 24.8 °F 15.3 °F 12.2 °F 59% 30.35 in 10.0 mi East 9.2 mph - N/A   Scattered Clouds
1:31 PM 24.8 °F 16.1 °F 12.2 °F 59% 30.34 in 10.0 mi East 8.1 mph - N/A   Scattered Clouds
1:51 PM 24.8 °F 19.1 °F 12.2 °F 59% 30.34 in 10.0 mi ENE 4.6 mph - N/A   Clear
2:11 PM 26.6 °F 19.1 °F 12.2 °F 55% 30.34 in 10.0 mi East 6.9 mph - N/A   Clear
2:31 PM 26.6 °F 21.2 °F 12.2 °F 55% 30.34 in 10.0 mi East 4.6 mph - N/A   Clear
2:51 PM 26.6 °F 21.2 °F 14.0 °F 59% 30.33 in 10.0 mi East 4.6 mph - N/A   Clear
3:12 PM 26.6 °F 18.2 °F 15.8 °F 64% 30.33 in 10.0 mi East 8.1 mph - N/A   Clear
3:31 PM 24.8 °F 15.3 °F 14.0 °F 64% 30.33 in 10.0 mi East 9.2 mph - N/A   Clear
3:51 PM 24.8 °F 15.3 °F 15.8 °F 69% 30.33 in 10.0 mi East 9.2 mph - N/A   Clear
4:12 PM 24.8 °F 15.3 °F 15.8 °F 69% 30.33 in 10.0 mi ENE 9.2 mph - N/A   Clear
4:31 PM 24.8 °F 15.3 °F 15.8 °F 69% 30.33 in 10.0 mi East 9.2 mph - N/A   Clear
4:51 PM 23.0 °F 12.4 °F 15.8 °F 74% 30.33 in 10.0 mi ENE 10.4 mph - N/A   Clear
5:12 PM 21.2 °F 11.7 °F 14.0 °F 74% 30.33 in 10.0 mi ENE 8.1 mph - N/A   Clear
5:31 PM 21.2 °F 10.1 °F 14.0 °F 74% 30.33 in 10.0 mi ENE 10.4 mph - N/A   Clear
5:51 PM 19.4 °F 9.5 °F 14.0 °F 80% 30.33 in 10.0 mi ENE 8.1 mph - N/A   Clear
7:52 PM 19.4 °F 12.8 °F 14.0 °F 80% 30.32 in 10.0 mi NE 4.6 mph - N/A   Overcast
8:11 PM 19.4 °F 11.5 °F 15.8 °F 86% 30.32 in 10.0 mi ENE 5.8 mph - N/A   Overcast
8:31 PM 21.2 °F 10.1 °F 15.8 °F 80% 30.33 in 10.0 mi East 10.4 mph - N/A   Overcast
8:52 PM 21.2 °F 9.5 °F 15.8 °F 80% 30.32 in 10.0 mi East 11.5 mph - N/A   Overcast
9:11 PM 21.2 °F 10.1 °F 15.8 °F 80% 30.32 in 10.0 mi East 10.4 mph - N/A   Overcast
9:31 PM 21.2 °F 10.9 °F 15.8 °F 80% 30.32 in 10.0 mi East 9.2 mph - N/A   Overcast
9:52 PM 21.2 °F 10.1 °F 15.8 °F 80% 30.31 in 10.0 mi East 10.4 mph - N/A   Overcast
10:11 PM 21.2 °F 12.6 °F 15.8 °F 80% 30.31 in 10.0 mi East 6.9 mph - N/A   Overcast
10:31 PM 21.2 °F 10.9 °F 15.8 °F 80% 30.31 in 10.0 mi East 9.2 mph - N/A   Overcast
10:51 PM 21.2 °F 11.7 °F 15.8 °F 80% 30.31 in 10.0 mi East 8.1 mph - N/A   Overcast
11:11 PM 21.2 °F 12.6 °F 15.8 °F 80% 30.30 in 10.0 mi East 6.9 mph - N/A   Overcast
11:31 PM 21.2 °F 14.9 °F 15.8 °F 80% 30.31 in 10.0 mi ENE 4.6 mph - N/A   Overcast